| time (UTC) | temp F | wind direction | speed MPH | gust MPH | rain 1hr in | rain 24hr in | rain mn in | humidity % | barometer mb |
| 20260507184516 | 71 | 352 | 6.0 | 13.0 | 0.00 | 0.00 | 0.00 | 70 | 1016.3 |
| 20260507181522 | 69 | 14 | 4.0 | 13.0 | 0.00 | 0.00 | 0.00 | 74 | 1016.8 |
| 20260507174511 | 66 | 352 | 2.0 | 14.0 | 0.00 | 0.00 | 0.00 | 78 | 1017.4 |
| 20260507173019 | 66 | 354 | 11.0 | 18.0 | 0.00 | 0.00 | 0.00 | 77 | 1017.1 |
| 20260507170039 | 66 | 60 | 8.0 | 17.0 | 0.00 | 0.00 | 0.00 | 77 | 1017.7 |
| 20260507161503 | 63 | 11 | 6.0 | 10.0 | 0.00 | 0.00 | 0.00 | 82 | 1017.6 |
| 20260507160003 | 62 | 49 | 2.0 | 8.0 | 0.00 | 0.00 | 0.00 | 83 | 1017.6 |
| 20260507154507 | 62 | 356 | 6.0 | 11.0 | 0.00 | 0.00 | 0.00 | 83 | 1017.5 |
| 20260507153013 | 62 | 359 | 4.0 | 10.0 | 0.00 | 0.00 | 0.00 | 83 | 1017.5 |
| 20260507150007 | 61 | 39 | 4.0 | 11.0 | 0.00 | 0.00 | 0.00 | 83 | 1016.6 |
| 20260507143009 | 61 | 68 | 7.0 | 17.0 | 0.00 | 0.00 | 0.00 | 84 | 1016.3 |
| 20260507141513 | 61 | 347 | 9.0 | 21.0 | 0.00 | 0.00 | 0.00 | 84 | 1016.1 |
| 20260507140018 | 61 | 358 | 9.0 | 18.0 | 0.00 | 0.00 | 0.00 | 86 | 1016.7 |
| 20260507134504 | 61 | 5 | 9.0 | 18.0 | 0.00 | 0.00 | 0.00 | 86 | 1016.8 |
| 20260507133006 | 61 | 20 | 4.0 | 16.0 | 0.00 | 0.00 | 0.00 | 86 | 1016.8 |
| 20260507131514 | 61 | 45 | 5.0 | 17.0 | 0.00 | 0.00 | 0.00 | 86 | 1016.6 |
| 20260507130017 | 61 | 357 | 5.0 | 14.0 | 0.00 | 0.00 | 0.00 | 86 | 1016.5 |
| 20260507124521 | 61 | 351 | 2.0 | 14.0 | 0.00 | 0.00 | 0.00 | 86 | 1016.7 |
| 20260507123006 | 61 | 332 | 7.0 | 15.0 | 0.00 | 0.00 | 0.00 | 86 | 1016.5 |
| 20260507121512 | 62 | 343 | 6.0 | 16.0 | 0.00 | 0.00 | 0.00 | 86 | 1016.7 |
| 20260507114521 | 62 | 38 | 5.0 | 12.0 | 0.00 | 0.00 | 0.00 | 86 | 1015.4 |
| 20260507113020 | 62 | 351 | 3.0 | 14.0 | 0.00 | 0.00 | 0.00 | 86 | 1015.2 |
| 20260507111507 | 62 | 4 | 6.0 | 13.0 | 0.00 | 0.00 | 0.00 | 85 | 1015.3 |
| 20260507110012 | 62 | 1 | 6.0 | 12.0 | 0.00 | 0.00 | 0.00 | 85 | 1015.2 |
| 20260507104515 | 62 | 20 | 5.0 | 14.0 | 0.00 | 0.00 | 0.00 | 85 | 1015.0 |
| 20260507103023 | 62 | 13 | 4.0 | 9.0 | 0.00 | 0.00 | 0.00 | 85 | 1014.9 |
| 20260507101525 | 62 | 336 | 2.0 | 7.0 | 0.00 | 0.00 | 0.00 | 85 | 1014.9 |
| 20260507100009 | 62 | 27 | 2.0 | 6.0 | 0.00 | 0.00 | 0.00 | 85 | 1014.8 |
| 20260507094514 | 62 | 346 | 3.0 | 10.0 | 0.00 | 0.00 | 0.00 | 84 | 1014.6 |
| 20260507093018 | 62 | 4 | 0.0 | 6.0 | 0.00 | 0.00 | 0.00 | 84 | 1014.6 |
| 20260507091523 | 62 | 347 | 2.0 | 8.0 | 0.00 | 0.00 | 0.00 | 84 | 1014.3 |
| 20260507090024 | 63 | 36 | 3.0 | 7.0 | 0.00 | 0.00 | 0.00 | 84 | 1014.1 |
| 20260507084513 | 63 | 357 | 3.0 | 7.0 | 0.00 | 0.00 | 0.00 | 84 | 1013.9 |
| 20260507083016 | 62 | 40 | 4.0 | 9.0 | 0.00 | 0.00 | 0.00 | 84 | 1013.9 |
| 20260507081534 | 63 | 37 | 6.0 | 11.0 | 0.00 | 0.00 | 0.00 | 83 | 1014.1 |
| 20260507080024 | 62 | 11 | 4.0 | 9.0 | 0.00 | 0.00 | 0.00 | 84 | 1014.3 |
| 20260507074544 | 62 | 30 | 3.0 | 10.0 | 0.00 | 0.00 | 0.00 | 83 | 1014.4 |
| 20260507073011 | 62 | 49 | 3.0 | 11.0 | 0.00 | 0.00 | 0.00 | 83 | 1014.3 |
| 20260507071513 | 63 | 353 | 6.0 | 13.0 | 0.00 | 0.00 | 0.00 | 83 | 1014.5 |
| 20260507070021 | 63 | 26 | 4.0 | 13.0 | 0.00 | 0.00 | 0.00 | 82 | 1014.4 |
| 20260507064523 | 63 | 35 | 6.0 | 14.0 | 0.00 | 0.00 | 0.00 | 82 | 1014.6 |
| 20260507063028 | 63 | 356 | 6.0 | 12.0 | 0.00 | 0.00 | 0.00 | 82 | 1014.5 |
| 20260507061513 | 63 | 21 | 4.0 | 15.0 | 0.00 | 0.00 | 0.00 | 82 | 1015.0 |
| 20260507060016 | 63 | 15 | 5.0 | 11.0 | 0.00 | 0.00 | 0.00 | 82 | 1014.8 |
| 20260507054521 | 63 | 352 | 6.0 | 14.0 | 0.00 | 0.00 | 0.00 | 82 | 1014.9 |
| 20260507053024 | 63 | 4 | 6.0 | 17.0 | 0.00 | 0.00 | 0.00 | 82 | 1014.8 |
| 20260507051525 | 63 | 339 | 3.0 | 9.0 | 0.00 | 0.00 | 0.00 | 82 | 1014.2 |
| 20260507050025 | 63 | 4 | 8.0 | 15.0 | 0.00 | 0.00 | 0.00 | 81 | 1014.0 |
| 20260507044519 | 64 | 324 | 6.0 | 13.0 | 0.00 | 0.00 | 0.00 | 82 | 1014.5 |
| 20260507043023 | 64 | 17 | 5.0 | 13.0 | 0.00 | 0.00 | 0.00 | 82 | 1014.4 |
| 20260507041510 | 64 | 22 | 6.0 | 11.0 | 0.00 | 0.00 | 0.00 | 82 | 1014.2 |
| 20260507040013 | 64 | 351 | 4.0 | 13.0 | 0.00 | 0.00 | 0.00 | 82 | 1014.4 |
| 20260507034516 | 64 | 351 | 3.0 | 13.0 | 0.00 | 0.00 | 0.00 | 82 | 1014.4 |
| 20260507033023 | 64 | 345 | 2.0 | 14.0 | 0.00 | 0.00 | 0.00 | 82 | 1013.9 |
| 20260507031523 | 64 | 13 | 2.0 | 11.0 | 0.00 | 0.00 | 0.00 | 82 | 1013.8 |
| 20260507030008 | 64 | 347 | 2.0 | 10.0 | 0.00 | 0.00 | 0.00 | 82 | 1013.6 |
| 20260507024513 | 64 | 339 | 7.0 | 14.0 | 0.00 | 0.00 | 0.00 | 81 | 1013.4 |
| 20260507023016 | 64 | 349 | 6.0 | 13.0 | 0.00 | 0.00 | 0.00 | 81 | 1013.0 |
| 20260507021522 | 65 | 8 | 4.0 | 17.0 | 0.00 | 0.00 | 0.00 | 81 | 1012.8 |
| 20260507020024 | 65 | 4 | 8.0 | 12.0 | 0.00 | 0.00 | 0.00 | 81 | 1012.4 |
| 20260507014509 | 66 | 27 | 4.0 | 16.0 | 0.00 | 0.00 | 0.00 | 80 | 1012.0 |
| 20260507013015 | 66 | 10 | 5.0 | 13.0 | 0.00 | 0.00 | 0.00 | 79 | 1011.7 |
| 20260507011520 | 67 | 356 | 6.0 | 15.0 | 0.00 | 0.00 | 0.00 | 79 | 1011.5 |
| 20260507010020 | 68 | 1 | 7.0 | 13.0 | 0.00 | 0.00 | 0.00 | 78 | 1011.4 |
| 20260507004524 | 69 | 14 | 6.0 | 15.0 | 0.00 | 0.00 | 0.00 | 78 | 1011.2 |
| 20260507003011 | 69 | 4 | 8.0 | 15.0 | 0.00 | 0.00 | 0.00 | 78 | 1010.9 |
| 20260507001521 | 70 | 16 | 5.0 | 14.0 | 0.00 | 0.00 | 0.00 | 78 | 1010.7 |
| 20260507000026 | 70 | 15 | 6.0 | 12.0 | 0.00 | 0.00 | 0.00 | 77 | 1010.9 |
| 20260506234521 | 71 | 349 | 8.0 | 14.0 | 0.00 | 0.00 | 0.00 | 77 | 1010.7 |
| 20260506233025 | 72 | 41 | 6.0 | 14.0 | 0.00 | 0.00 | 0.00 | 76 | 1010.5 |
| 20260506231514 | 72 | 12 | 6.0 | 17.0 | 0.00 | 0.00 | 0.00 | 77 | 1010.3 |
| 20260506230017 | 72 | 336 | 7.0 | 21.0 | 0.00 | 0.00 | 0.00 | 77 | 1010.2 |
| 20260506224521 | 74 | 18 | 10.0 | 18.0 | 0.00 | 0.00 | 0.00 | 75 | 1010.1 |
| 20260506223021 | 75 | 357 | 5.0 | 16.0 | 0.00 | 0.00 | 0.00 | 77 | 1009.8 |
| 20260506221525 | 81 | 11 | 5.0 | 14.0 | 0.00 | 0.00 | 0.00 | 78 | 1009.4 |
| 20260506211523 | 84 | 75 | 2.0 | 5.0 | 0.00 | 0.00 | 0.00 | 77 | 1009.2 |
| 20260506210028 | 84 | 53 | 2.0 | 7.0 | 0.00 | 0.00 | 0.00 | 76 | 1009.3 |
| 20260506201522 | 81 | 5 | 2.0 | 6.0 | 0.00 | 0.00 | 0.00 | 81 | 1009.8 |
| 20260506200025 | 81 | 9 | 3.0 | 9.0 | 0.00 | 0.00 | 0.00 | 80 | 1009.8 |
| 20260506194526 | 83 | 77 | 1.0 | 9.0 | 0.00 | 0.00 | 0.00 | 77 | 1009.9 |